{"data":{"norad_id":63497,"intl_designator":"2025-071E","name":"STARLINK-33815","alt_names":[],"object_type":"PAYLOAD","status":"ACTIVE","operator":null,"country":"US","launch_date":"2025-04-07","launch_site_code":"AFWTR","launch_vehicle":null,"mission":null,"orbit_class":"UNKNOWN","rcs_meters":null,"size_class":null,"mass_kg":null,"dimensions":null,"purposes":["comms"],"wikipedia_slug":null,"has_3d_model":false,"image_url":null,"decayed_at":null,"tle_current":{"epoch":"2026-09-20T09:06:06.368832Z","epoch_age_seconds":166161,"freshness":"FRESH","line1":"1 63497U 25071E   26263.37924038  .00002392  00000+0  88756-4 0  9992","line2":"2 63497  53.1586 314.4830 0001256  62.2114 297.9014 15.31720265 82590","mean_motion":15.31720265,"eccentricity":0.0001256,"inclination_deg":53.1586,"raan_deg":314.483,"arg_perigee_deg":62.2114,"mean_anomaly_deg":297.9014,"bstar":8.8756e-5,"rev_number":8259,"period_min":94.011944145689,"perigee_km":469.81937561785,"apogee_km":471.5397983445,"semimajor_km":6848.8165869812,"source":"CELESTRAK","updated_at":"2026-09-21T09:00:35.013807Z"}}}